Terug naar catalogus

STARLINK-2592

ActiefCommunicatieVLEO
NORAD 48408·PAYLOAD·🇺🇸 United States

Gelanceerd May 4, 2021 vanaf Cape Canaveral Space Force Station

Loading…

Volgende Passages (komende 24 uur)

TLE

VersSource: CelesTrak SupGP

Epoch: Sep 14, 2026, 20:58 UTC

1 48408C 21038BH  26257.87409722 -.00016599  00000+0 -53386-3 0  2575
2 48408  53.1580 172.7308 0001248  89.0061  55.1902 15.31705870    15

Volg STARLINK-2592 in realtime met AllMySat

Download on the App Store